CALSPHERE 1 1 00900U 64063C 10067.74040771 +.00000204 +00000-0 +21927-3 0 00319 2 00900 090.1560 331.4851 0027600 156.5924 203.6524 13.70562808255705 CALSPHERE 2 1 00902U 64063E 10067.72255543 +.00000075 +00000-0 +10000-3 0 02974 2 00902 090.1598 334.3448 0016845 195.6297 164.4325 13.52472746053124 LCS 1 1 01361U 65034C 10067.91380818 +.00000009 +00000-0 +10000-3 0 02087 2 01361 032.1387 250.5420 0011221 223.9807 135.9798 09.89278018621578 TEMPSAT 1 1 01512U 65065E 10067.70234538 +.00000059 +00000-0 +10000-3 0 03539 2 01512 089.8008 295.3906 0070923 019.4080 340.9727 13.33265488167875 CALSPHERE 4(A) 1 01520U 65065H 10067.95079684 +.00000059 +00000-0 +10000-3 0 05097 2 01520 090.1750 088.0135 0069123 302.7783 056.6712 13.35333279169583 OPS 5712 (P/L 160) 1 02826U 67053A 10067.72975152 +.00000450 +00000-0 +16680-3 0 09613 2 02826 069.9336 279.8500 0006967 166.8618 193.2671 14.38483103205338 OPS 5712 (P/L 153) 1 02874U 67053H 10067.76411555 -.00000022 +00000-0 +22717-4 0 03600 2 02874 069.9699 245.7066 0007722 330.1869 029.8786 13.95937686177461 SURCAL 150B 1 02909U 67053J 10067.62754730 +.00000599 +00000-0 +18218-3 0 01436 2 02909 069.9544 087.2682 0006811 278.7834 081.2530 14.46746368211212 RIGIDSPHERE 2 (LCS 4) 1 05398U 71067E 10067.68828664 +.00000158 +00000-0 +51816-4 0 08008 2 05398 087.6329 176.9514 0066677 028.6872 331.7965 14.31226504022398 OPS 8180 (RADCAT) 1 06212U 72076A 10067.75906249 +.00003742 +00000-0 +13198-3 0 09608 2 06212 098.5690 121.5391 0003775 152.3581 207.7818 15.30057548163314